User: anonymous   Login
Location: Taipo
(41.0000°S, 175.9500°E)
Time: 14:05:43
(UTC+00:00)
Language:

SJ-12 - Orbit

View from above orbital plane
View from above orbital plane
View from above satellite
View from above satellite

Ground track
Ground track

The orbit data is extracted from the following two-line orbital elements,

1 36596U 10027A   24174.12850099  .00005115  00000-0  36592-3 0  9991
2 36596  97.7594 168.9568 0009565  63.5132 296.7074 15.04856349765378
Epoch (UTC): 22 June 2024 03:05:02
Eccentricity: 0.0009565
inclination: 97.7594°
perigee height: 545 km
apogee height: 558 km
right ascension of ascending node: 168.9568°
argument of perigee: 63.5132°
revolutions per day: 15.04856349
mean anomaly at epoch: 296.7074°
orbit number at epoch: 76537

The dashed part of the orbit path shows where the satellite is in the earth's shadow,  

DLR